Location: Egypt
(35.2429°N, 89.9254°W)
Time: 00:09:18
(UTC+00:00)

ACS3 Solar Sail - Visible Passes

Search period start: 12 July 2025 00:00
Search period end: 22 July 2025 00:00
Orbit: 912 x 1023 km, 97.5° (Epoch: 11 July)

Date Brightness Start Highest point End Pass type
(mag) Time Alt. Az. Time Alt. Az. Time Alt. Az.
12 Jul 4.5 09:27:20 10° ENE 09:29:17 12° E 09:31:15 10° ESE visible
13 Jul 4.2 09:47:50 10° NE 09:52:07 20° E 09:56:28 10° SE visible
14 Jul 3.5 10:09:31 10° NNE 10:14:52 32° E 10:20:18 10° SSE visible
17 Jul 4.3 09:35:20 10° NE 09:39:00 16° E 09:42:43 10° SE visible
18 Jul 3.8 09:56:42 10° NE 10:01:46 27° E 10:06:52 10° SSE visible
19 Jul 3.1 10:18:39 10° NNE 10:24:25 43° E 10:30:16 10° SSE visible
21 Jul 4.5 09:23:00 10° ENE 09:25:45 13° E 09:28:30 10° ESE visible
